User: anonymous   Login
Location: Caltech
(34.1382°N, 118.1253°W)
Time: 06:42:08
(UTC-07:00)
Language:

RS-15 - Orbit

View from above orbital plane
View from above orbital plane
View from above satellite
View from above satellite

Ground track
Ground track

The orbit data is extracted from the following two-line orbital elements,

1 23439U 94085A   15084.63882209 -.00000033  00000-0  28060-3 0  9999
2 23439 064.8154 096.5812 0151423 028.2076 332.6948 11.27562826833732
Epoch (UTC): 25 March 2015 15:19:54
Eccentricity: 0.0151423
inclination: 64.8154°
perigee height: 1895 km
apogee height: 2149 km
right ascension of ascending node: 96.5812°
argument of perigee: 28.2076°
revolutions per day: 11.27562826
mean anomaly at epoch: 332.6948°
orbit number at epoch: 83373

The dashed part of the orbit path shows where the satellite is in the earth's shadow,  

DLR